TimeEDT,TemperatureF,Dew PointF,Humidity,Sea Level PressureIn,VisibilityMPH,Wind Direction,Wind SpeedMPH,Gust SpeedMPH,PrecipitationIn,Events,Conditions,WindDirDegrees,DateUTC
12:54 AM,44.1,34.0,68,30.14,10.0,WSW,6.9,-,0.00,Rain,Light Rain,240,2012-10-07 04:54:00
1:54 AM,42.1,36.0,79,30.15,10.0,ENE,3.5,-,0.01,Rain,Light Rain,70,2012-10-07 05:54:00
2:54 AM,42.8,37.4,81,30.13,10.0,Calm,Calm,-,N/A,,Overcast,0,2012-10-07 06:54:00
3:40 AM,42.8,37.4,81,30.12,6.0,WSW,5.8,-,0.02,Rain,Light Rain,240,2012-10-07 07:40:00
3:54 AM,42.1,37.9,85,30.13,10.0,WSW,5.8,-,0.02,Rain,Light Rain,250,2012-10-07 07:54:00
4:54 AM,42.1,39.0,89,30.13,8.0,SW,5.8,-,0.02,Rain,Light Rain,230,2012-10-07 08:54:00
5:54 AM,42.1,39.0,89,30.13,8.0,SSW,6.9,-,0.02,Rain,Light Rain,210,2012-10-07 09:54:00
6:10 AM,42.8,39.2,87,30.11,7.0,SW,6.9,-,0.01,Rain,Light Rain,230,2012-10-07 10:10:00
6:54 AM,42.1,39.0,89,30.12,10.0,West,10.4,-,0.01,Rain,Light Rain,270,2012-10-07 10:54:00
7:19 AM,42.8,37.4,81,30.10,10.0,West,10.4,-,0.00,Rain,Light Rain,270,2012-10-07 11:19:00
7:46 AM,41.0,39.2,93,30.11,10.0,Calm,Calm,-,0.01,,Overcast,0,2012-10-07 11:46:00
7:54 AM,42.1,39.0,89,30.13,10.0,Calm,Calm,-,0.01,,Overcast,0,2012-10-07 11:54:00
8:39 AM,42.8,39.2,87,30.12,9.0,NNW,3.5,-,0.01,Rain,Light Rain,330,2012-10-07 12:39:00
8:50 AM,42.8,39.2,87,30.12,10.0,Calm,Calm,-,0.01,Rain,Light Rain,0,2012-10-07 12:50:00
8:54 AM,43.0,39.0,86,30.13,10.0,Calm,Calm,-,0.01,Rain,Light Rain,0,2012-10-07 12:54:00
9:54 AM,43.0,39.0,86,30.15,10.0,NNW,4.6,-,0.00,,Overcast,340,2012-10-07 13:54:00
10:03 AM,42.8,39.2,87,30.14,10.0,NW,4.6,-,N/A,,Overcast,320,2012-10-07 14:03:00
10:54 AM,43.0,39.0,86,30.16,8.0,WNW,6.9,-,0.00,Rain,Light Rain,300,2012-10-07 14:54:00
11:06 AM,42.8,39.2,87,30.15,4.0,WNW,8.1,-,0.01,Rain,Light Rain,300,2012-10-07 15:06:00
11:44 AM,42.8,37.4,81,30.15,6.0,NW,5.8,-,0.03,Rain,Light Rain,320,2012-10-07 15:44:00
11:51 AM,42.8,37.4,81,30.15,7.0,NW,4.6,-,0.03,Rain,Light Rain,310,2012-10-07 15:51:00
11:54 AM,42.1,37.9,85,30.17,8.0,West,3.5,-,0.03,Rain,Light Rain,280,2012-10-07 15:54:00
12:36 PM,42.8,37.4,81,30.16,10.0,WNW,5.8,-,0.01,,Overcast,290,2012-10-07 16:36:00
12:54 PM,44.1,39.0,82,30.17,10.0,WNW,6.9,-,0.01,,Overcast,300,2012-10-07 16:54:00
1:08 PM,44.6,37.4,76,30.16,10.0,NW,9.2,-,N/A,,Overcast,310,2012-10-07 17:08:00
1:54 PM,44.1,39.9,85,30.17,10.0,WSW,9.2,-,0.00,,Overcast,250,2012-10-07 17:54:00
2:54 PM,44.1,39.9,85,30.16,10.0,West,8.1,-,0.00,Rain,Light Rain,270,2012-10-07 18:54:00
3:54 PM,48.0,39.0,71,30.16,10.0,WNW,5.8,-,0.00,,Overcast,290,2012-10-07 19:54:00
4:54 PM,46.0,33.1,61,30.16,10.0,WNW,10.4,-,N/A,,Overcast,300,2012-10-07 20:54:00
5:54 PM,46.0,32.0,58,30.16,10.0,WNW,4.6,-,N/A,,Overcast,290,2012-10-07 21:54:00
6:54 PM,45.0,33.1,63,30.16,10.0,Calm,Calm,-,N/A,,Overcast,0,2012-10-07 22:54:00
7:54 PM,43.0,36.0,76,30.16,10.0,SSW,3.5,-,N/A,,Overcast,200,2012-10-07 23:54:00
8:54 PM,43.0,32.0,65,30.17,10.0,SW,6.9,-,N/A,,Overcast,220,2012-10-08 00:54:00
9:54 PM,37.9,32.0,79,30.19,10.0,SSW,5.8,-,N/A,,Scattered Clouds,200,2012-10-08 01:54:00
10:54 PM,37.0,32.0,82,30.18,10.0,SSW,4.6,-,N/A,,Clear,200,2012-10-08 02:54:00
11:54 PM,36.0,30.9,82,30.18,10.0,SSW,5.8,-,N/A,,Clear,210,2012-10-08 03:54:00